Regional Weather Roundup
Issued by NWS

Home | Current Version | Previous Version | Graphics & Text | Print | Product List | Glossary On
Versions: 1 2 3 4 5 6 7 8 9 10 11 12 13 14 15 16 17 18 19 20 21 22 23 24 25 26 27 28 29 30 31 32 33 34 35 36 37 38 39 40 41 42 43 44 45 46 47 48 49 50
000
ASUS43 KLMK 191610
RWRKY
KENTUCKY REGIONAL WEATHER ROUNDUP
NATIONAL WEATHER SERVICE LOUISVILLE KY
1200 PM EDT SAT AUG 19 2017

NOTE "FAIR" INDICATES FEW OR NO CLOUDS BELOW 12,000 FEET
WITH NO SIGNIFICANT WEATHER AND/OR OBSTRUCTIONS TO VISIBILITY.

KYZ001>023-026-027-061>063-070>075-191700-
WESTERN AND SOUTH CENTRAL KENTUCKY

CITY           SKY/WX    TMP DP  RH WIND       PRES   REMARKS
PADUCAH        SUNNY     88  69  53 W8        29.96S HX  92
HENDERSON      NOT AVBL
OWENSBORO      CLOUDY    77  72  84 SW10      29.97F
HOPKINSVILLE   SUNNY     85  70  60 SW7       29.99S HX  90
BOWLING GREEN  CLOUDY    84  70  62 CALM      30.00F
GLASGOW        SUNNY     84  67  57 CALM      30.01F
$$

KYZ024-025-028>034-038-045-046-053-191700-
NORTH CENTRAL KENTUCKY

CITY           SKY/WX    TMP DP  RH WIND       PRES   REMARKS
LOUISVILLE/SDF CLOUDY    85  68  56 CALM      29.97F
LOUISVILLE/LOU CLOUDY    84  69  60 W9        29.98F
FORT KNOX      PTSUNNY   84  67  57 W7        29.98S
$$

KYZ035>037-039>044-047>052-055>060-089>105-191700-
NORTHEAST KENTUCKY

CITY           SKY/WX    TMP DP  RH WIND       PRES   REMARKS
LEXINGTON      SUNNY     82  66  58 SW10      30.01S
COVINGTON      PTSUNNY   78  70  76 SW7       29.98R
FRANKFORT      SUNNY     83  65  54 SW10      29.99R
$$

KYZ054-064>069-076>088-106>120-191700-
SOUTHEAST KENTUCKY

CITY           SKY/WX    TMP DP  RH WIND       PRES   REMARKS
JACKSON        SUNNY     78  66  66 VRB3      30.04S
LONDON         SUNNY     79  67  66 S6        30.04S
SOMERSET       SUNNY     79  64  61 W6        30.05R
MIDDLESBORO    SUNNY     78  69  75 N3        30.05F
MONTICELLO     SUNNY     83  69  62 W8G17     30.05S
$$





USA.gov is the U.S. government's official web portal to all federal, state and local government web resources and services.